GFSCGP_500_temp_159.txt.gz
Temp
-18 -18 -18 -20 -21 -21 -20 -20 -20 -20 -20 -20 -20 -19 -17 -13 -13 -12 -11 -10 -9 -9 -9 -9 -8 -9 -11 -9 -9 -8 -9 -9 -9 -8 -8 -8 -8 -8 -8 -8 -8 -8 -8 -8
-19 -19 -18 -19 -19 -19 -21 -21 -21 -20 -20 -21 -20 -20 -19 -18 -13 -13 -11 -10 -10 -10 -9 -9 -9 -9 -9 -10 -9 -9 -9 -9 -9 -9 -8 -8 -8 -8 -8 -8 -8 -8 -8 -8
-18 -19 -20 -19 -19 -19 -19 -19 -20 -20 -21 -20 -21 -21 -20 -19 -15 -13 -13 -11 -10 -10 -10 -9 -9 -9 -9 -8 -9 -10 -10 -10 -10 -10 -9 -9 -9 -9 -9 -9 -9 -8 -9 -9
-18 -19 -18 -19 -19 -19 -18 -19 -19 -19 -21 -21 -20 -20 -20 -18 -18 -14 -12 -11 -10 -10 -10 -9 -9 -9 -9 -9 -9 -9 -9 -9 -9 -9 -10 -9 -9 -9 -10 -10 -10 -10 -9 -9
-18 -18 -18 -18 -19 -19 -18 -19 -19 -19 -21 -21 -21 -21 -20 -19 -18 -16 -12 -10 -10 -10 -10 -10 -8 -9 -9 -9 -9 -9 -10 -9 -8 -10 -9 -9 -9 -10 -10 -10 -10 -10 -10 -10
-17 -18 -18 -18 -18 -19 -19 -19 -19 -20 -21 -21 -21 -21 -20 -19 -19 -13 -11 -11 -11 -11 -11 -10 -9 -9 -9 -9 -9 -10 -10 -10 -9 -9 -9 -10 -10 -10 -10 -10 -10 -10 -11 -10
-18 -18 -18 -18 -19 -19 -19 -19 -19 -20 -20 -19 -21 -21 -20 -19 -18 -15 -12 -12 -11 -12 -11 -10 -9 -9 -9 -9 -9 -10 -10 -10 -9 -9 -10 -10 -10 -10 -10 -10 -11 -11 -10 -10
-18 -18 -19 -19 -19 -19 -19 -20 -19 -20 -19 -19 -20 -20 -20 -18 -18 -17 -16 -13 -12 -13 -12 -11 -10 -9 -9 -9 -9 -10 -10 -10 -10 -10 -10 -10 -10 -10 -11 -11 -11 -10 -10 -10
-17 -18 -18 -19 -19 -19 -19 -19 -20 -20 -19 -20 -20 -20 -20 -19 -18 -18 -17 -16 -14 -13 -12 -11 -10 -10 -9 -10 -10 -10 -10 -10 -10 -10 -11 -10 -10 -11 -12 -11 -10 -10 -10 -10
-17 -17 -18 -18 -19 -19 -19 -20 -19 -19 -19 -20 -20 -19 -19 -19 -19 -18 -16 -16 -15 -13 -12 -11 -10 -10 -9 -9 -10 -10 -10 -10 -11 -10 -10 -11 -11 -11 -11 -10 -10 -10 -10 -10
-18 -17 -18 -18 -18 -19 -19 -19 -19 -19 -19 -19 -20 -19 -19 -19 -18 -18 -17 -15 -13 -13 -13 -12 -11 -10 -8 -9 -11 -11 -11 -11 -11 -11 -11 -11 -11 -11 -11 -10 -10 -10 -10 -10
-18 -18 -18 -18 -18 -18 -19 -19 -19 -19 -19 -19 -20 -19 -19 -18 -18 -18 -16 -14 -13 -13 -15 -14 -11 -9 -7 -10 -11 -11 -11 -11 -11 -11 -11 -12 -11 -11 -11 -11 -10 -10 -10 -10
-18 -18 -18 -18 -18 -19 -19 -19 -19 -19 -19 -19 -19 -18 -18 -18 -18 -18 -16 -15 -14 -13 -15 -14 -12 -10 -10 -12 -11 -11 -11 -11 -11 -11 -12 -11 -11 -11 -11 -10 -10 -10 -10 -10
-18 -18 -18 -18 -18 -19 -19 -19 -19 -19 -19 -19 -19 -18 -19 -18 -16 -18 -17 -17 -15 -14 -14 -14 -11 -10 -11 -11 -11 -11 -11 -12 -12 -11 -12 -11 -11 -11 -10 -10 -10 -10 -10 -11
-18 -18 -18 -18 -18 -18 -18 -19 -19 -19 -19 -19 -20 -19 -18 -18 -17 -18 -17 -17 -16 -14 -14 -12 -11 -11 -12 -12 -12 -12 -12 -12 -12 -12 -12 -12 -11 -11 -11 -10 -10 -11 -11 -11
-18 -18 -18 -17 -18 -18 -18 -19 -19 -19 -19 -19 -19 -19 -18 -17 -18 -17 -17 -16 -15 -15 -13 -11 -12 -13 -13 -13 -12 -12 -12 -13 -13 -13 -12 -12 -11 -11 -11 -11 -11 -11 -11 -11
-18 -18 -18 -18 -18 -18 -18 -19 -19 -19 -19 -20 -19 -19 -18 -18 -17 -16 -15 -16 -16 -14 -12 -12 -13 -13 -13 -13 -13 -13 -13 -13 -13 -12 -12 -12 -11 -11 -11 -11 -11 -11 -11 -12
-18 -18 -18 -18 -18 -18 -18 -18 -19 -19 -19 -20 -19 -18 -18 -18 -16 -14 -13 -13 -13 -13 -13 -13 -14 -13 -14 -13 -13 -13 -13 -13 -12 -12 -12 -11 -11 -11 -11 -11 -11 -12 -12 -12
-18 -18 -18 -18 -18 -18 -18 -19 -19 -19 -18 -18 -18 -18 -18 -18 -16 -15 -14 -14 -13 -13 -13 -13 -14 -14 -14 -14 -13 -13 -13 -13 -12 -12 -12 -12 -11 -11 -11 -12 -12 -12 -12 -13
-18 -18 -18 -18 -19 -18 -18 -18 -18 -18 -17 -17 -18 -18 -18 -17 -16 -15 -14 -14 -14 -14 -14 -14 -14 -14 -14 -14 -13 -13 -13 -13 -12 -12 -12 -12 -11 -11 -12 -13 -12 -13 -13 -13
-18 -18 -18 -18 -18 -18 -18 -18 -18 -17 -17 -16 -18 -18 -18 -16 -16 -16 -15 -15 -14 -14 -14 -14 -14 -14 -14 -14 -13 -13 -13 -12 -12 -12 -12 -12 -12 -12 -13 -13 -13 -13 -13 -13
-17 -17 -18 -18 -18 -17 -17 -17 -17 -17 -17 -17 -18 -18 -17 -17 -16 -16 -15 -15 -14 -14 -14 -14 -14 -13 -13 -13 -13 -13 -13 -13 -12 -12 -12 -12 -13 -13 -13 -13 -14 -14 -14 -14
-17 -17 -17 -18 -18 -18 -17 -18 -17 -17 -17 -18 -17 -17 -16 -16 -16 -16 -15 -14 -14 -14 -13 -13 -13 -13 -13 -13 -13 -13 -13 -12 -12 -12 -12 -13 -13 -13 -14 -14 -14 -14 -14 -14
-17 -17 -17 -18 -18 -17 -18 -18 -17 -17 -17 -17 -17 -16 -16 -16 -16 -15 -14 -14 -13 -13 -13 -13 -14 -14 -14 -13 -13 -13 -13 -13 -13 -13 -13 -14 -14 -14 -14 -14 -14 -14 -14 -14
-17 -17 -17 -17 -18 -17 -17 -17 -17 -17 -17 -17 -15 -16 -16 -16 -15 -15 -14 -14 -13 -14 -14 -14 -14 -14 -14 -13 -13 -13 -13 -13 -13 -14 -14 -14 -15 -15 -15 -15 -14 -14 -14 -14
-17 -17 -17 -17 -17 -17 -18 -17 -17 -17 -17 -16 -16 -16 -16 -15 -15 -15 -14 -14 -14 -13 -14 -14 -14 -14 -14 -14 -14 -14 -14 -14 -14 -14 -14 -15 -15 -15 -15 -14 -14 -14 -14 -14

GFSCGP_500_temp_162.txt.gz
Temp
-17 -17 -17 -18 -19 -18 -19 -20 -19 -19 -19 -19 -18 -19 -17 -19 -18 -15 -13 -12 -11 -11 -10 -10 -10 -10 -9 -10 -8 -8 -8 -8 -9 -8 -8 -8 -8 -8 -7 -7 -8 -8 -8 -8
-17 -17 -19 -19 -19 -19 -19 -19 -19 -19 -19 -19 -19 -19 -19 -19 -18 -18 -14 -12 -12 -11 -10 -11 -10 -10 -9 -9 -10 -8 -9 -10 -9 -8 -8 -8 -8 -8 -7 -8 -8 -8 -8 -9
-17 -18 -19 -19 -18 -19 -19 -18 -19 -20 -20 -19 -18 -18 -19 -19 -18 -17 -17 -13 -13 -12 -11 -10 -11 -10 -9 -9 -8 -9 -9 -8 -10 -9 -9 -8 -8 -8 -8 -8 -9 -9 -9 -9
-17 -17 -17 -17 -18 -19 -18 -19 -19 -20 -20 -18 -19 -19 -19 -19 -19 -18 -17 -15 -13 -11 -11 -11 -11 -10 -9 -9 -8 -8 -10 -9 -10 -9 -9 -9 -9 -9 -9 -9 -9 -9 -9 -9
-17 -17 -17 -17 -18 -18 -18 -19 -18 -19 -18 -19 -17 -20 -19 -20 -19 -19 -17 -13 -13 -12 -11 -11 -11 -10 -10 -9 -9 -9 -10 -9 -8 -9 -8 -9 -9 -9 -9 -9 -9 -10 -10 -10
-17 -17 -17 -18 -18 -18 -18 -18 -18 -18 -18 -19 -17 -20 -18 -19 -19 -19 -18 -15 -12 -13 -11 -11 -11 -11 -10 -8 -9 -9 -9 -8 -9 -9 -9 -9 -9 -10 -10 -9 -10 -10 -10 -10
-17 -17 -17 -17 -18 -18 -18 -19 -19 -19 -19 -18 -19 -18 -18 -19 -19 -19 -19 -17 -13 -12 -11 -11 -11 -11 -10 -8 -9 -9 -9 -9 -9 -9 -9 -9 -9 -9 -10 -10 -9 -10 -10 -10
-16 -17 -17 -18 -18 -18 -19 -19 -19 -18 -20 -19 -18 -18 -18 -19 -19 -19 -19 -18 -14 -12 -11 -11 -11 -11 -9 -9 -9 -9 -8 -9 -9 -9 -10 -9 -9 -10 -10 -10 -10 -10 -10 -9
-17 -17 -17 -18 -18 -18 -18 -18 -19 -19 -19 -19 -18 -18 -19 -19 -19 -19 -18 -18 -16 -13 -12 -12 -11 -11 -9 -9 -9 -8 -8 -8 -9 -10 -10 -10 -10 -10 -10 -10 -10 -11 -10 -10
-17 -16 -18 -18 -18 -18 -18 -19 -19 -19 -19 -19 -19 -18 -18 -18 -19 -18 -18 -17 -17 -14 -13 -12 -12 -11 -9 -9 -9 -9 -9 -9 -9 -9 -10 -10 -10 -10 -9 -11 -10 -10 -11 -10
-18 -17 -17 -18 -18 -18 -18 -18 -18 -19 -18 -19 -19 -18 -19 -18 -18 -18 -17 -16 -15 -15 -13 -12 -12 -11 -9 -9 -9 -9 -9 -9 -9 -9 -9 -10 -10 -9 -11 -11 -10 -11 -10 -9
-18 -17 -18 -18 -18 -18 -18 -18 -19 -19 -18 -19 -19 -18 -19 -18 -18 -17 -16 -15 -15 -14 -13 -12 -12 -10 -9 -9 -9 -9 -9 -9 -9 -9 -10 -10 -10 -11 -11 -11 -11 -11 -10 -10
-18 -17 -17 -17 -18 -18 -18 -19 -19 -18 -18 -18 -19 -18 -18 -18 -17 -17 -16 -15 -15 -16 -14 -13 -12 -10 -9 -10 -10 -10 -10 -10 -10 -9 -10 -11 -11 -10 -12 -12 -11 -10 -10 -10
-18 -18 -18 -17 -18 -18 -18 -19 -19 -19 -18 -18 -19 -18 -19 -17 -17 -17 -17 -16 -15 -15 -14 -14 -10 -9 -9 -10 -11 -10 -10 -10 -10 -10 -10 -11 -11 -11 -11 -11 -11 -10 -10 -10
-18 -18 -18 -18 -18 -18 -18 -18 -19 -18 -18 -18 -19 -18 -18 -17 -17 -18 -16 -16 -15 -14 -13 -13 -11 -10 -10 -9 -7 -8 -9 -10 -10 -9 -11 -11 -12 -11 -11 -11 -10 -10 -10 -10
-18 -18 -18 -18 -18 -18 -18 -18 -18 -19 -19 -18 -18 -18 -19 -18 -18 -17 -16 -15 -14 -14 -13 -12 -12 -11 -10 -10 -11 -8 -10 -9 -10 -11 -12 -12 -12 -11 -11 -10 -10 -10 -10 -10
-18 -18 -18 -18 -18 -18 -18 -18 -18 -18 -19 -18 -18 -18 -18 -19 -18 -17 -16 -15 -14 -13 -13 -13 -12 -12 -11 -10 -10 -10 -11 -11 -12 -12 -12 -11 -11 -11 -11 -10 -10 -10 -10 -10
-18 -18 -18 -18 -18 -18 -18 -18 -19 -19 -19 -18 -18 -19 -18 -18 -18 -16 -15 -15 -13 -13 -13 -13 -12 -12 -12 -11 -11 -12 -12 -12 -12 -12 -12 -11 -11 -11 -11 -10 -10 -10 -11 -11
-18 -18 -18 -18 -18 -18 -18 -18 -18 -19 -19 -18 -18 -18 -18 -18 -17 -16 -15 -14 -14 -13 -12 -13 -13 -13 -12 -12 -13 -12 -12 -12 -12 -12 -12 -12 -11 -11 -11 -11 -11 -11 -11 -12
-17 -18 -18 -18 -18 -18 -18 -18 -19 -18 -18 -17 -17 -17 -17 -17 -16 -16 -14 -14 -14 -13 -13 -13 -13 -13 -13 -13 -13 -12 -12 -12 -12 -12 -12 -11 -11 -11 -11 -11 -11 -12 -12 -12
-17 -17 -18 -18 -18 -18 -18 -18 -18 -18 -17 -17 -17 -16 -16 -16 -17 -15 -15 -14 -14 -14 -14 -14 -13 -13 -13 -13 -12 -12 -12 -12 -12 -12 -12 -12 -11 -11 -11 -11 -12 -13 -13 -13
-17 -17 -17 -18 -18 -18 -18 -17 -18 -17 -17 -17 -17 -16 -17 -16 -15 -15 -14 -15 -14 -15 -14 -14 -14 -13 -13 -13 -13 -13 -13 -13 -13 -12 -12 -11 -11 -12 -12 -13 -13 -13 -13 -14
-17 -17 -17 -17 -17 -17 -17 -17 -17 -17 -18 -18 -18 -17 -18 -17 -16 -15 -16 -16 -15 -15 -15 -14 -14 -14 -13 -13 -13 -13 -13 -13 -12 -12 -12 -12 -12 -12 -13 -14 -14 -14 -14 -14
-17 -17 -17 -17 -17 -17 -17 -18 -17 -17 -17 -17 -17 -18 -17 -16 -16 -16 -16 -15 -15 -14 -14 -13 -13 -13 -13 -13 -13 -13 -13 -12 -12 -12 -12 -13 -13 -14 -14 -14 -14 -14 -14 -14
-17 -17 -17 -17 -18 -18 -18 -18 -18 -17 -17 -17 -17 -17 -16 -16 -16 -15 -15 -14 -14 -14 -13 -13 -13 -13 -13 -13 -13 -13 -13 -13 -13 -13 -13 -13 -14 -14 -14 -14 -14 -14 -14 -14
-17 -17 -17 -17 -17 -18 -17 -18 -18 -17 -17 -17 -17 -16 -16 -16 -16 -15 -14 -14 -14 -13 -13 -13 -13 -13 -13 -14 -13 -13 -13 -13 -13 -13 -13 -14 -14 -14 -14 -14 -14 -14 -14 -14

GFSCGP_500_temp_165.txt.gz
Temp
-16 -16 -16 -18 -18 -18 -18 -18 -18 -18 -18 -19 -19 -19 -18 -18 -17 -14 -14 -14 -13 -13 -12 -11 -10 -10 -11 -7 -7 -7 -7 -8 -7 -7 -6 -7 -8 -8 -8 -8 -8 -8 -7 -7
-16 -16 -17 -17 -18 -18 -19 -18 -18 -18 -18 -19 -18 -18 -19 -18 -19 -18 -16 -14 -14 -14 -13 -13 -12 -11 -10 -8 -7 -7 -7 -7 -8 -9 -9 -8 -8 -8 -8 -8 -8 -8 -8 -8
-16 -17 -17 -17 -17 -17 -18 -18 -18 -18 -18 -18 -19 -18 -17 -18 -18 -18 -18 -15 -13 -15 -14 -13 -13 -12 -11 -9 -8 -7 -7 -8 -9 -9 -9 -7 -8 -8 -8 -8 -8 -8 -8 -9
-17 -17 -17 -17 -17 -18 -17 -18 -18 -18 -18 -17 -19 -18 -18 -17 -18 -17 -18 -19 -16 -13 -14 -14 -13 -13 -12 -10 -9 -9 -8 -7 -9 -8 -8 -7 -8 -9 -9 -8 -8 -9 -9 -9
-17 -17 -17 -17 -18 -17 -17 -18 -18 -18 -18 -17 -17 -19 -16 -18 -18 -18 -17 -17 -18 -15 -13 -13 -12 -12 -12 -10 -9 -9 -9 -9 -8 -7 -7 -9 -7 -9 -8 -8 -9 -9 -9 -9
-17 -17 -17 -17 -17 -17 -18 -18 -18 -18 -18 -17 -17 -19 -15 -18 -18 -18 -19 -18 -18 -17 -15 -12 -12 -12 -12 -11 -9 -10 -9 -9 -8 -8 -6 -8 -8 -9 -9 -9 -9 -9 -9 -9
-17 -17 -17 -17 -17 -18 -18 -18 -18 -18 -18 -17 -19 -18 -16 -18 -18 -18 -19 -19 -19 -18 -15 -13 -12 -12 -11 -11 -9 -9 -9 -9 -8 -8 -8 -7 -7 -8 -9 -9 -8 -9 -9 -10
-16 -16 -17 -17 -18 -18 -18 -18 -18 -18 -18 -18 -18 -17 -17 -19 -18 -19 -18 -19 -19 -17 -16 -14 -14 -12 -11 -10 -9 -9 -8 -8 -8 -8 -8 -7 -8 -8 -9 -9 -9 -10 -11 -10
-16 -16 -18 -18 -18 -18 -18 -18 -19 -18 -18 -18 -17 -18 -18 -18 -18 -19 -19 -19 -18 -17 -17 -16 -13 -13 -11 -9 -9 -9 -9 -8 -7 -7 -7 -8 -8 -8 -10 -10 -9 -11 -10 -11
-17 -16 -17 -18 -18 -18 -18 -19 -19 -19 -18 -18 -18 -18 -18 -18 -19 -18 -19 -19 -18 -16 -16 -16 -15 -14 -10 -10 -10 -9 -9 -7 -7 -8 -8 -9 -9 -10 -10 -10 -10 -9 -10 -11
-17 -17 -18 -18 -18 -18 -18 -18 -18 -19 -18 -18 -18 -18 -19 -18 -19 -18 -18 -18 -18 -17 -17 -16 -15 -12 -10 -10 -9 -9 -9 -8 -8 -8 -9 -10 -10 -10 -9 -10 -10 -11 -11 -11
-17 -17 -17 -18 -18 -18 -18 -19 -19 -19 -19 -18 -19 -18 -18 -18 -18 -19 -18 -18 -18 -17 -17 -17 -16 -11 -10 -10 -9 -9 -9 -9 -9 -9 -9 -10 -10 -10 -10 -11 -11 -11 -11 -11
-18 -17 -17 -17 -18 -18 -18 -18 -18 -18 -18 -18 -18 -17 -18 -19 -18 -18 -18 -18 -17 -17 -17 -15 -14 -12 -10 -10 -9 -9 -9 -9 -9 -9 -9 -10 -10 -10 -10 -10 -11 -11 -11 -10
-18 -18 -18 -18 -18 -18 -18 -18 -18 -18 -18 -18 -18 -17 -18 -19 -18 -18 -17 -17 -16 -17 -17 -15 -14 -11 -10 -10 -10 -11 -10 -10 -9 -9 -9 -10 -10 -11 -10 -10 -11 -12 -11 -10
-18 -18 -18 -18 -18 -18 -18 -18 -19 -19 -18 -19 -18 -18 -17 -18 -18 -18 -17 -15 -15 -16 -16 -14 -13 -12 -11 -11 -11 -11 -11 -10 -9 -9 -10 -11 -11 -10 -11 -11 -12 -11 -11 -10
-18 -18 -17 -19 -18 -18 -18 -18 -18 -18 -19 -19 -18 -17 -17 -18 -17 -17 -16 -16 -16 -15 -14 -12 -12 -12 -11 -11 -11 -11 -10 -10 -6 -9 -10 -11 -9 -10 -11 -12 -12 -11 -10 -10
-18 -18 -18 -19 -18 -18 -18 -18 -17 -18 -19 -19 -18 -18 -17 -17 -17 -17 -16 -15 -15 -14 -13 -13 -13 -12 -11 -11 -10 -10 -9 -9 -8 -9 -9 -10 -11 -13 -12 -11 -11 -11 -10 -10
-18 -18 -18 -18 -18 -18 -18 -18 -18 -18 -19 -19 -18 -17 -17 -17 -17 -16 -17 -15 -13 -11 -11 -13 -13 -12 -12 -12 -11 -10 -10 -10 -8 -9 -11 -11 -13 -12 -11 -11 -11 -10 -10 -10
-18 -18 -18 -18 -18 -18 -18 -18 -18 -18 -19 -19 -18 -17 -17 -16 -16 -16 -15 -13 -14 -11 -11 -12 -13 -13 -12 -12 -11 -11 -9 -9 -10 -12 -13 -13 -12 -11 -11 -11 -10 -10 -10 -11
-17 -17 -18 -18 -18 -18 -18 -18 -18 -18 -18 -18 -17 -17 -17 -16 -15 -17 -14 -14 -13 -13 -12 -12 -12 -13 -12 -12 -11 -11 -11 -11 -13 -13 -12 -12 -11 -11 -11 -11 -11 -11 -11 -11
-17 -17 -18 -18 -18 -18 -18 -18 -17 -18 -17 -17 -16 -17 -17 -16 -15 -15 -15 -14 -13 -12 -11 -12 -11 -12 -12 -12 -11 -12 -11 -13 -13 -12 -12 -12 -12 -11 -11 -11 -11 -11 -11 -12
-17 -17 -17 -18 -18 -18 -18 -18 -17 -17 -17 -17 -17 -16 -17 -16 -15 -15 -16 -14 -12 -13 -12 -12 -12 -12 -12 -12 -12 -12 -14 -14 -13 -13 -13 -12 -12 -12 -11 -11 -11 -11 -12 -13
-17 -17 -17 -18 -18 -17 -17 -17 -17 -17 -18 -17 -17 -16 -17 -16 -16 -16 -15 -13 -13 -12 -11 -13 -12 -12 -13 -13 -13 -14 -14 -13 -13 -13 -13 -13 -12 -12 -11 -12 -12 -13 -14 -13
-17 -17 -17 -17 -17 -18 -17 -17 -17 -17 -18 -17 -16 -15 -16 -16 -16 -16 -15 -14 -12 -13 -13 -13 -13 -13 -14 -14 -14 -14 -13 -13 -13 -13 -12 -12 -12 -12 -13 -13 -13 -13 -14 -14
-17 -17 -17 -17 -18 -17 -18 -17 -17 -17 -17 -17 -16 -15 -15 -15 -15 -15 -14 -15 -14 -13 -13 -14 -14 -14 -14 -14 -13 -14 -14 -13 -13 -13 -13 -13 -13 -13 -13 -13 -13 -14 -14 -14
-17 -17 -17 -17 -18 -18 -18 -17 -17 -17 -17 -17 -16 -16 -16 -15 -15 -15 -14 -15 -14 -14 -14 -15 -14 -15 -14 -13 -14 -13 -13 -13 -13 -13 -13 -13 -13 -13 -13 -14 -14 -14 -14 -14

GFSCGP_500_temp_168.txt.gz
Temp
-16 -16 -16 -17 -16 -17 -17 -17 -17 -18 -18 -18 -17 -18 -16 -16 -16 -15 -14 -12 -12 -13 -12 -12 -12 -11 -10 -9 -7 -6 -6 -7 -9 -8 -9 -8 -8 -8 -8 -8 -8 -8 -8 -8
-16 -16 -16 -16 -16 -16 -17 -17 -17 -18 -18 -19 -18 -18 -17 -17 -17 -17 -15 -14 -12 -13 -13 -13 -12 -12 -11 -10 -9 -8 -7 -7 -7 -8 -8 -8 -8 -8 -8 -8 -8 -8 -8 -9
-16 -16 -16 -16 -16 -16 -16 -17 -17 -17 -18 -19 -18 -17 -17 -17 -18 -18 -17 -15 -14 -13 -13 -13 -13 -12 -11 -11 -10 -9 -8 -8 -9 -8 -9 -8 -8 -8 -8 -8 -8 -9 -9 -9
-16 -16 -16 -16 -16 -17 -16 -17 -17 -17 -17 -17 -19 -17 -17 -17 -17 -18 -18 -17 -14 -13 -13 -13 -13 -12 -11 -12 -10 -11 -9 -9 -9 -9 -9 -8 -7 -9 -9 -9 -9 -9 -9 -10
-17 -16 -16 -16 -17 -17 -16 -17 -17 -17 -17 -17 -17 -17 -15 -18 -18 -17 -18 -18 -16 -15 -14 -14 -13 -13 -12 -12 -12 -11 -9 -9 -9 -9 -8 -8 -8 -9 -9 -9 -9 -9 -10 -10
-16 -16 -16 -16 -17 -17 -17 -17 -17 -17 -18 -17 -17 -18 -15 -17 -18 -17 -18 -18 -17 -16 -14 -14 -14 -13 -13 -13 -12 -11 -10 -9 -9 -9 -8 -7 -8 -8 -9 -8 -9 -9 -9 -10
-17 -17 -17 -17 -17 -18 -18 -18 -17 -17 -17 -17 -17 -18 -15 -18 -18 -17 -17 -17 -17 -17 -16 -15 -15 -14 -13 -13 -13 -12 -10 -10 -9 -9 -8 -8 -7 -8 -9 -9 -9 -9 -9 -9
-16 -17 -18 -18 -18 -18 -19 -18 -18 -18 -17 -18 -18 -16 -16 -18 -18 -18 -17 -17 -17 -17 -17 -16 -15 -15 -14 -13 -13 -12 -10 -10 -9 -9 -8 -8 -8 -9 -8 -9 -9 -9 -9 -9
-16 -16 -18 -18 -18 -18 -18 -18 -18 -18 -18 -18 -17 -17 -17 -18 -18 -18 -18 -18 -17 -17 -17 -16 -15 -15 -14 -13 -13 -10 -11 -10 -10 -9 -9 -9 -9 -9 -10 -9 -9 -9 -9 -11
-16 -16 -17 -18 -18 -18 -18 -18 -18 -18 -18 -18 -17 -17 -17 -18 -18 -18 -18 -18 -17 -18 -17 -18 -17 -15 -14 -13 -12 -11 -11 -11 -10 -10 -9 -8 -9 -9 -9 -9 -10 -10 -10 -10
-17 -17 -17 -18 -18 -18 -18 -18 -19 -19 -19 -18 -17 -17 -18 -19 -19 -19 -18 -18 -18 -19 -19 -18 -18 -17 -15 -12 -12 -11 -11 -11 -10 -10 -9 -9 -10 -10 -10 -10 -10 -11 -10 -11
-18 -17 -17 -18 -18 -18 -18 -19 -19 -19 -18 -19 -18 -17 -18 -18 -19 -19 -18 -19 -19 -19 -19 -18 -17 -16 -14 -11 -11 -11 -11 -11 -9 -9 -9 -9 -10 -10 -11 -10 -11 -10 -10 -11
-17 -17 -17 -17 -17 -18 -18 -19 -18 -18 -18 -17 -18 -17 -18 -19 -19 -19 -18 -18 -18 -19 -19 -17 -17 -16 -13 -11 -11 -11 -11 -10 -10 -9 -9 -9 -9 -10 -11 -11 -11 -10 -10 -11
-17 -18 -18 -18 -18 -18 -18 -19 -19 -18 -18 -18 -17 -18 -19 -19 -19 -19 -19 -19 -18 -19 -19 -18 -16 -16 -13 -10 -11 -11 -10 -10 -10 -10 -9 -10 -10 -11 -11 -11 -10 -10 -11 -11
-18 -18 -18 -18 -18 -19 -19 -18 -19 -18 -18 -17 -17 -18 -19 -19 -19 -19 -19 -19 -18 -17 -18 -17 -16 -15 -13 -11 -11 -11 -10 -10 -10 -10 -10 -10 -10 -10 -10 -10 -10 -11 -12 -11
-18 -17 -17 -18 -18 -18 -18 -18 -18 -18 -18 -17 -17 -18 -19 -19 -19 -19 -18 -18 -18 -17 -17 -16 -16 -14 -13 -12 -12 -11 -10 -10 -10 -10 -10 -10 -10 -10 -9 -10 -10 -12 -11 -10
-17 -18 -18 -18 -18 -18 -18 -18 -18 -18 -18 -18 -18 -18 -18 -19 -18 -18 -17 -16 -17 -16 -16 -16 -15 -14 -14 -12 -12 -11 -10 -10 -10 -10 -10 -10 -10 -9 -10 -11 -11 -12 -11 -10
-18 -18 -18 -18 -18 -18 -18 -18 -17 -18 -19 -19 -19 -18 -18 -18 -18 -18 -17 -16 -17 -17 -16 -15 -15 -14 -13 -12 -11 -11 -10 -11 -11 -10 -10 -7 -10 -10 -11 -12 -12 -11 -11 -10
-18 -18 -18 -17 -18 -18 -17 -17 -18 -18 -18 -18 -18 -18 -18 -17 -17 -17 -17 -16 -17 -16 -14 -15 -14 -14 -13 -13 -12 -11 -10 -10 -11 -11 -10 -9 -10 -12 -13 -13 -12 -11 -10 -11
-18 -18 -18 -18 -17 -17 -18 -17 -17 -17 -17 -17 -17 -17 -16 -17 -17 -16 -17 -16 -16 -16 -15 -14 -14 -13 -13 -13 -11 -11 -10 -9 -8 -8 -9 -11 -12 -14 -13 -12 -11 -11 -10 -11
-18 -18 -18 -17 -17 -17 -17 -17 -18 -17 -17 -17 -16 -16 -16 -17 -17 -16 -16 -15 -15 -14 -14 -14 -14 -13 -12 -12 -11 -11 -11 -11 -10 -10 -11 -14 -14 -13 -11 -12 -11 -11 -11 -11
-17 -17 -18 -18 -17 -17 -17 -17 -18 -17 -17 -16 -17 -16 -16 -17 -16 -16 -16 -15 -14 -13 -12 -13 -13 -12 -12 -11 -11 -12 -11 -11 -11 -12 -12 -13 -12 -12 -13 -11 -11 -11 -11 -11
-17 -17 -18 -18 -18 -17 -17 -17 -18 -17 -17 -17 -16 -16 -16 -16 -15 -14 -15 -15 -13 -11 -13 -12 -12 -12 -12 -12 -12 -12 -11 -11 -12 -13 -12 -12 -13 -12 -11 -11 -11 -12 -12 -12
-17 -17 -18 -18 -18 -18 -17 -17 -18 -17 -18 -17 -17 -16 -16 -15 -15 -15 -14 -14 -13 -13 -13 -12 -12 -12 -12 -12 -13 -13 -13 -12 -13 -13 -12 -12 -12 -12 -11 -11 -12 -13 -13 -13
-17 -17 -17 -17 -17 -17 -18 -18 -17 -18 -17 -16 -17 -16 -15 -14 -15 -15 -14 -15 -13 -11 -12 -12 -13 -13 -12 -12 -12 -13 -13 -13 -13 -13 -13 -13 -12 -12 -13 -13 -13 -14 -14 -14
-17 -17 -17 -17 -17 -17 -17 -17 -18 -17 -17 -17 -17 -17 -16 -15 -15 -15 -15 -13 -12 -11 -12 -12 -12 -12 -12 -13 -13 -13 -14 -13 -13 -13 -13 -13 -13 -13 -14 -14 -14 -14 -14 -14

GFSCGP_500_temp_171.txt.gz
Temp
-16 -16 -16 -16 -16 -16 -16 -16 -15 -17 -17 -16 -17 -16 -16 -16 -16 -16 -15 -13 -12 -12 -12 -12 -11 -12 -11 -11 -10 -9 -9 -9 -8 -9 -8 -8 -8 -7 -8 -8 -8 -8 -8 -8
-17 -17 -16 -16 -16 -16 -16 -16 -16 -16 -17 -16 -16 -16 -16 -16 -16 -16 -16 -15 -13 -12 -12 -13 -13 -13 -13 -12 -12 -10 -9 -9 -9 -8 -8 -7 -8 -8 -8 -7 -7 -8 -8 -8
-17 -17 -16 -16 -16 -16 -16 -16 -16 -16 -17 -16 -16 -15 -16 -17 -17 -17 -16 -16 -15 -12 -13 -14 -13 -13 -13 -13 -12 -11 -9 -8 -9 -9 -9 -9 -8 -9 -8 -7 -7 -8 -8 -8
-17 -17 -16 -16 -16 -16 -15 -16 -16 -16 -16 -15 -17 -14 -16 -16 -17 -17 -17 -16 -16 -14 -12 -14 -14 -14 -13 -13 -13 -12 -10 -9 -8 -9 -9 -9 -9 -9 -9 -9 -8 -8 -8 -8
-17 -17 -17 -16 -16 -16 -16 -16 -16 -16 -16 -16 -16 -17 -15 -17 -17 -17 -17 -17 -17 -15 -14 -13 -14 -14 -14 -13 -12 -12 -11 -10 -9 -9 -9 -10 -10 -10 -9 -9 -8 -8 -9 -8
-16 -17 -16 -16 -16 -17 -17 -17 -17 -17 -17 -16 -17 -17 -14 -17 -17 -17 -17 -17 -17 -16 -14 -13 -15 -15 -14 -14 -13 -12 -11 -10 -9 -10 -10 -10 -9 -9 -8 -8 -8 -7 -9 -8
-17 -17 -16 -16 -17 -17 -17 -17 -17 -17 -17 -16 -17 -17 -15 -17 -18 -17 -17 -17 -17 -17 -16 -14 -14 -14 -15 -14 -13 -12 -12 -11 -9 -10 -10 -10 -10 -9 -9 -8 -8 -7 -8 -8
-16 -17 -17 -17 -18 -17 -18 -18 -18 -18 -17 -17 -17 -16 -16 -17 -17 -18 -17 -17 -17 -17 -16 -16 -14 -16 -15 -14 -14 -13 -12 -11 -10 -10 -11 -10 -9 -9 -10 -9 -8 -8 -9 -8
-16 -16 -18 -17 -18 -17 -17 -18 -18 -18 -18 -18 -17 -17 -17 -17 -17 -18 -17 -17 -17 -17 -16 -16 -16 -14 -15 -15 -15 -14 -13 -12 -11 -11 -11 -10 -9 -9 -10 -9 -9 -9 -8 -9
-17 -16 -18 -18 -18 -18 -17 -18 -18 -19 -18 -18 -17 -17 -17 -18 -18 -17 -17 -17 -17 -17 -17 -16 -17 -16 -15 -15 -15 -14 -13 -13 -12 -11 -11 -11 -9 -8 -9 -8 -8 -8 -10 -10
-17 -17 -17 -17 -17 -18 -18 -18 -19 -19 -19 -19 -18 -17 -17 -18 -18 -18 -17 -17 -18 -17 -17 -16 -16 -17 -15 -15 -15 -15 -14 -13 -12 -11 -11 -11 -10 -9 -9 -8 -10 -10 -10 -11
-17 -17 -17 -18 -18 -18 -18 -19 -19 -19 -19 -19 -19 -16 -19 -19 -18 -17 -17 -18 -18 -17 -17 -16 -16 -16 -17 -16 -15 -14 -14 -13 -12 -11 -11 -11 -10 -10 -9 -9 -10 -11 -11 -11
-17 -17 -17 -18 -18 -18 -18 -19 -19 -19 -19 -19 -19 -17 -18 -19 -18 -18 -18 -17 -18 -18 -18 -17 -17 -16 -17 -15 -15 -15 -14 -13 -12 -11 -11 -11 -9 -9 -9 -10 -10 -11 -11 -11
-17 -17 -18 -18 -18 -19 -18 -19 -19 -19 -19 -19 -18 -18 -19 -19 -18 -19 -19 -19 -18 -18 -18 -18 -17 -18 -17 -15 -16 -14 -14 -14 -13 -12 -11 -11 -10 -10 -10 -9 -9 -11 -11 -11
-18 -17 -17 -18 -18 -19 -18 -18 -19 -19 -19 -19 -19 -18 -19 -18 -18 -18 -18 -18 -18 -18 -18 -17 -18 -18 -19 -17 -17 -14 -14 -14 -12 -12 -11 -11 -11 -10 -10 -10 -9 -10 -10 -11
-18 -17 -17 -18 -19 -18 -18 -18 -19 -18 -19 -19 -19 -18 -18 -18 -18 -18 -19 -18 -19 -19 -18 -17 -19 -19 -19 -18 -16 -15 -14 -13 -11 -11 -11 -11 -11 -10 -10 -10 -9 -10 -10 -10
-18 -18 -17 -17 -18 -18 -18 -18 -19 -19 -19 -19 -19 -19 -19 -19 -18 -18 -18 -19 -18 -19 -19 -19 -20 -18 -18 -17 -16 -14 -13 -12 -12 -12 -12 -12 -11 -10 -10 -10 -10 -10 -10 -12
-18 -18 -18 -18 -18 -18 -18 -18 -18 -18 -19 -19 -18 -19 -19 -18 -18 -18 -18 -18 -18 -18 -19 -18 -18 -18 -17 -16 -16 -15 -13 -12 -12 -12 -12 -12 -11 -11 -10 -9 -10 -10 -13 -11
-18 -18 -18 -17 -17 -17 -17 -18 -18 -18 -18 -18 -18 -18 -18 -17 -17 -17 -18 -18 -17 -18 -18 -17 -17 -17 -16 -16 -14 -15 -14 -12 -13 -12 -12 -12 -11 -11 -8 -9 -10 -11 -13 -11
-18 -18 -18 -17 -17 -17 -17 -17 -17 -18 -18 -18 -18 -17 -17 -17 -17 -17 -18 -17 -17 -17 -16 -16 -16 -16 -16 -15 -14 -14 -13 -12 -12 -12 -12 -11 -11 -8 -9 -10 -13 -14 -11 -11
-18 -18 -18 -18 -17 -17 -17 -17 -17 -18 -18 -18 -17 -17 -16 -17 -17 -17 -18 -16 -16 -16 -16 -16 -16 -16 -15 -14 -14 -13 -11 -11 -11 -11 -11 -10 -9 -10 -10 -11 -12 -11 -11 -11
-18 -18 -18 -18 -18 -17 -17 -17 -17 -18 -18 -17 -17 -16 -16 -17 -16 -16 -16 -16 -16 -16 -14 -14 -16 -15 -14 -14 -13 -12 -12 -11 -11 -10 -10 -10 -10 -10 -11 -13 -11 -11 -10 -12
-18 -18 -18 -18 -18 -17 -17 -17 -17 -18 -18 -17 -17 -16 -17 -16 -16 -15 -15 -15 -15 -14 -14 -13 -14 -14 -14 -13 -13 -12 -11 -11 -11 -11 -11 -10 -12 -13 -13 -12 -11 -11 -12 -12
-18 -18 -18 -18 -18 -18 -17 -18 -17 -18 -18 -17 -17 -16 -16 -15 -15 -15 -16 -13 -14 -14 -14 -14 -14 -13 -13 -12 -12 -12 -11 -11 -11 -11 -11 -13 -13 -12 -11 -12 -12 -13 -13 -12
-18 -18 -18 -18 -17 -17 -17 -18 -18 -18 -18 -17 -17 -16 -16 -16 -15 -16 -15 -13 -13 -13 -13 -13 -13 -12 -12 -11 -11 -13 -12 -13 -13 -14 -13 -12 -12 -12 -13 -13 -12 -12 -12 -13
-18 -18 -18 -18 -17 -17 -17 -17 -18 -18 -18 -17 -17 -16 -15 -15 -15 -15 -14 -13 -12 -13 -13 -12 -12 -12 -12 -13 -13 -13 -13 -14 -13 -13 -13 -13 -12 -12 -13 -13 -13 -13 -13 -13

GFSCGP_500_temp_174.txt.gz
Temp
-16 -17 -17 -17 -16 -16 -15 -15 -15 -16 -16 -15 -15 -14 -14 -15 -16 -16 -16 -15 -14 -13 -12 -12 -12 -12 -11 -9 -10 -10 -10 -9 -9 -10 -10 -9 -8 -9 -9 -9 -9 -9 -9 -9
-16 -18 -19 -18 -17 -16 -16 -16 -15 -15 -16 -16 -15 -14 -14 -15 -15 -16 -16 -16 -15 -15 -13 -13 -13 -14 -13 -12 -10 -10 -11 -10 -8 -9 -9 -10 -9 -9 -9 -9 -9 -9 -9 -9
-18 -19 -19 -18 -17 -16 -16 -16 -16 -15 -16 -16 -15 -14 -14 -15 -15 -16 -16 -16 -16 -16 -15 -13 -13 -14 -14 -13 -12 -12 -11 -10 -8 -9 -10 -10 -9 -9 -9 -9 -8 -9 -9 -9
-18 -19 -18 -17 -17 -16 -16 -16 -16 -15 -15 -15 -16 -14 -15 -15 -16 -16 -16 -16 -16 -16 -16 -15 -13 -13 -15 -14 -12 -12 -11 -10 -10 -10 -11 -9 -9 -10 -10 -10 -9 -8 -9 -8
-17 -18 -17 -17 -16 -16 -16 -16 -16 -16 -15 -15 -15 -16 -14 -15 -16 -16 -16 -16 -16 -16 -16 -16 -15 -13 -14 -14 -13 -13 -13 -12 -11 -10 -11 -9 -10 -10 -10 -9 -9 -9 -9 -9
-17 -17 -17 -17 -17 -16 -16 -16 -16 -16 -16 -15 -16 -17 -14 -16 -16 -16 -15 -16 -17 -16 -16 -16 -17 -15 -13 -15 -15 -14 -14 -13 -11 -11 -10 -10 -10 -10 -10 -10 -10 -10 -9 -9
-18 -18 -18 -17 -16 -16 -16 -16 -16 -16 -16 -16 -17 -16 -15 -16 -18 -16 -15 -16 -16 -17 -16 -17 -17 -16 -15 -15 -15 -15 -15 -14 -12 -11 -10 -10 -10 -11 -10 -10 -10 -10 -9 -9
-17 -18 -18 -17 -17 -16 -17 -17 -17 -16 -16 -16 -16 -15 -16 -17 -17 -17 -17 -17 -16 -17 -17 -17 -17 -17 -16 -15 -15 -15 -15 -14 -13 -11 -10 -10 -11 -11 -11 -11 -10 -9 -9 -9
-17 -17 -17 -16 -17 -16 -16 -18 -18 -18 -18 -17 -17 -16 -16 -17 -17 -18 -17 -17 -17 -17 -17 -17 -17 -17 -17 -16 -15 -16 -15 -15 -14 -12 -10 -10 -11 -11 -11 -10 -10 -9 -9 -9
-17 -16 -17 -17 -17 -17 -17 -18 -18 -19 -19 -18 -17 -17 -17 -18 -18 -18 -17 -17 -17 -17 -17 -17 -17 -17 -17 -16 -16 -16 -15 -15 -14 -13 -11 -11 -11 -11 -11 -12 -10 -10 -10 -9
-17 -16 -17 -18 -18 -18 -18 -18 -18 -19 -20 -19 -18 -17 -18 -19 -19 -18 -18 -17 -17 -17 -17 -17 -17 -17 -17 -17 -16 -16 -16 -15 -15 -14 -12 -11 -11 -12 -11 -11 -10 -10 -9 -9
-17 -16 -17 -18 -18 -18 -18 -18 -19 -20 -19 -19 -19 -17 -18 -19 -19 -18 -19 -18 -18 -17 -18 -17 -17 -17 -17 -17 -17 -16 -16 -16 -15 -14 -12 -12 -12 -12 -12 -10 -11 -9 -9 -10
-18 -17 -17 -18 -18 -18 -18 -19 -19 -19 -19 -19 -19 -17 -19 -19 -19 -18 -18 -18 -18 -17 -17 -17 -17 -17 -17 -17 -17 -16 -16 -16 -15 -14 -13 -12 -12 -12 -11 -11 -10 -10 -10 -10
-18 -18 -18 -18 -18 -18 -19 -19 -19 -19 -19 -19 -19 -17 -19 -19 -18 -18 -17 -18 -18 -17 -17 -17 -17 -17 -17 -17 -17 -17 -16 -16 -16 -15 -13 -13 -12 -12 -12 -11 -11 -10 -10 -10
-18 -18 -18 -18 -18 -19 -19 -19 -19 -19 -19 -19 -18 -18 -19 -19 -18 -18 -18 -18 -17 -17 -17 -17 -17 -17 -17 -17 -17 -18 -16 -16 -15 -15 -13 -12 -12 -12 -12 -12 -11 -10 -10 -10
-19 -18 -18 -18 -18 -18 -18 -18 -18 -19 -19 -19 -19 -19 -19 -19 -19 -18 -18 -18 -17 -18 -17 -17 -17 -17 -16 -17 -17 -18 -16 -15 -15 -14 -13 -12 -12 -12 -12 -12 -11 -9 -9 -10
-18 -18 -18 -18 -18 -18 -18 -18 -18 -19 -19 -19 -19 -19 -19 -19 -19 -19 -19 -18 -18 -17 -17 -17 -17 -17 -18 -18 -18 -17 -17 -15 -14 -13 -13 -12 -12 -12 -12 -12 -11 -10 -9 -10
-19 -18 -18 -18 -18 -18 -18 -18 -18 -18 -18 -19 -18 -18 -19 -19 -19 -19 -17 -17 -17 -18 -18 -18 -17 -17 -18 -18 -18 -18 -17 -15 -14 -14 -13 -12 -12 -12 -12 -11 -11 -11 -10 -9
-18 -18 -18 -18 -18 -18 -18 -18 -17 -17 -18 -18 -18 -18 -18 -18 -18 -18 -18 -18 -18 -17 -17 -18 -18 -18 -18 -17 -18 -17 -16 -15 -14 -13 -12 -12 -12 -13 -12 -11 -12 -11 -10 -9
-19 -19 -19 -18 -18 -17 -18 -18 -17 -18 -18 -18 -17 -18 -18 -17 -17 -18 -18 -18 -17 -17 -18 -16 -18 -18 -19 -18 -17 -14 -15 -15 -14 -13 -13 -13 -13 -13 -12 -12 -12 -10 -10 -10
-19 -19 -18 -18 -18 -18 -18 -18 -18 -18 -18 -18 -18 -18 -17 -17 -17 -18 -18 -17 -18 -18 -17 -16 -17 -18 -18 -17 -14 -16 -15 -14 -13 -13 -13 -13 -13 -13 -12 -13 -12 -11 -11 -13
-19 -18 -18 -18 -18 -18 -18 -18 -18 -18 -18 -17 -17 -17 -17 -17 -17 -16 -16 -16 -17 -18 -17 -18 -16 -18 -16 -17 -15 -14 -14 -14 -13 -13 -13 -13 -12 -12 -12 -12 -11 -10 -12 -12
-19 -19 -19 -19 -18 -18 -18 -18 -18 -18 -18 -17 -17 -16 -17 -16 -16 -16 -15 -15 -16 -16 -17 -17 -16 -17 -17 -17 -16 -16 -14 -13 -13 -13 -13 -13 -11 -11 -12 -11 -13 -13 -13 -12
-19 -19 -18 -18 -18 -18 -18 -18 -18 -18 -18 -17 -16 -17 -16 -16 -15 -15 -14 -14 -16 -17 -16 -16 -16 -16 -15 -15 -14 -14 -13 -13 -12 -12 -12 -12 -10 -10 -11 -13 -13 -13 -13 -13
-19 -19 -18 -18 -18 -18 -18 -18 -18 -18 -17 -18 -16 -16 -16 -16 -15 -14 -14 -15 -15 -15 -16 -15 -15 -15 -14 -13 -13 -13 -12 -12 -11 -11 -11 -11 -11 -12 -13 -14 -14 -13 -13 -13
-19 -18 -18 -18 -18 -18 -18 -18 -17 -17 -17 -17 -16 -16 -15 -16 -15 -14 -14 -14 -14 -14 -14 -14 -14 -14 -13 -13 -12 -12 -12 -11 -11 -11 -11 -12 -13 -13 -14 -14 -14 -13 -13 -13